DeKalb, IL

2:01 AM CST on December 13, 2017 (GMT -0600)
De Kalb Taylor Municipal

Weather History for KDKB - October, 2012

Change the Weather History Date:

Thursday, October 25, 2012

  Actual Average (KARR) Record (KARR)
Temperature  
Mean Temperature 58 °F -  
Max Temperature 73 °F 57 °F 75 °F (2004)
Min Temperature 42 °F 37 °F 20 °F (2013)
Degree Days  
Heating Degree Days 8    
Growing Degree Days 8 (Base 50)    
Moisture  
Dew Point 57 °F    
Average Humidity 86    
Maximum Humidity 94    
Minimum Humidity 77    
Precipitation  
Precipitation 0.11 in - - ()
Sea Level Pressure  
Sea Level Pressure 29.81 in    
Wind  
Wind Speed 18 mph (SSW)    
Max Wind Speed 29 mph    
Max Gust Speed 38 mph    
Visibility 10 miles    
Events Rain , Thunderstorm    
Averages and records for this station are not official NWS values.
T = Trace of Precipitation, MM = Missing Value Source: NWS Daily Summary

Daily Weather History Graph

Daily Weather History Graph

Search for Another Location

Airport or City:

Trip Planner

Search our weather history database for the weather conditions in past years. The results will help you decide how hot, cold, wet, or windy it might be!

Date:

Astronomy

Oct. 25, 2012 Rise Set
Actual Time 7:19 AM CDT 5:57 PM CDT
Civil Twilight 6:50 AM CDT 6:26 PM CDT
Nautical Twilight 6:18 AM CDT 6:58 PM CDT
Astronomical Twilight 5:45 AM CDT 7:31 PM CDT
Moon 3:46 PM CDT (10/25) 3:12 AM CDT (10/25)
Length of Visible Light 11h 35m
Length of Day
10h 38m
Waxing Gibbous, 84% of the Moon is Illuminated
Oct 25
Waxing Gibbous
Oct 29
Full
Nov 6
Last Quarter
Nov 13
New
Nov 20
First Quarter

Hourly Weather History & Observations

Time (CDT) Temp. Windchill Dew Point Humidity Pressure Visibility Wind Dir Wind Speed Gust Speed Precip Events Conditions
12:15 AM 66.2 °F - 62.6 °F 88% 29.83 in 10.0 mi South 16.1 mph - N/A   Clear
12:35 AM 66.2 °F - 62.6 °F 88% 29.82 in 10.0 mi South 16.1 mph - N/A   Clear
12:55 AM 66.2 °F - 62.6 °F 88% 29.82 in 10.0 mi South 18.4 mph - N/A   Clear
1:15 AM 66.2 °F - 62.6 °F 88% 29.82 in 10.0 mi South 17.3 mph - N/A   Clear
1:35 AM 66.2 °F - 62.4 °F 88% 29.82 in 10.0 mi SSE 18.4 mph 21.9 mph N/A   Clear
1:55 AM 66.0 °F - 62.1 °F 87% 29.81 in 10.0 mi SSE 16.1 mph - N/A   Clear
2:15 AM 66.2 °F - 62.6 °F 88% 29.81 in 10.0 mi SSE 16.1 mph 21.9 mph N/A   Clear
2:35 AM 64.9 °F - 61.3 °F 88% 29.81 in 10.0 mi SSE 13.8 mph - N/A   Clear
2:55 AM 64.4 °F - 60.8 °F 88% 29.81 in 10.0 mi SSE 12.7 mph - N/A   Clear
3:15 AM 63.7 °F - 60.8 °F 90% 29.79 in 10.0 mi SSE 15.0 mph - N/A   Clear
3:35 AM 63.5 °F - 60.4 °F 90% 29.79 in 10.0 mi SSE 12.7 mph - N/A   Clear
3:55 AM 63.0 °F - 59.9 °F 90% 29.79 in 10.0 mi SSE 11.5 mph - N/A   Clear
4:35 AM 63.0 °F - 60.1 °F 90% 29.80 in 10.0 mi SSE 12.7 mph - N/A   Clear
4:55 AM 62.8 °F - 59.9 °F 90% 29.81 in 10.0 mi South 12.7 mph - N/A   Clear
5:15 AM 63.0 °F - 60.1 °F 90% 29.80 in 10.0 mi SSE 13.8 mph - N/A   Mostly Cloudy
5:35 AM 63.5 °F - 60.3 °F 89% 29.79 in 10.0 mi SSE 16.1 mph - N/A   Mostly Cloudy
5:55 AM 63.0 °F - 59.9 °F 90% 29.79 in 10.0 mi South 15.0 mph - N/A   Scattered Clouds
6:15 AM 63.0 °F - 59.9 °F 90% 29.79 in 10.0 mi SSE 16.1 mph - N/A   Clear
6:35 AM 62.6 °F - 60.8 °F 94% 29.79 in 10.0 mi South 17.3 mph - N/A   Clear
6:55 AM 63.0 °F - 59.9 °F 90% 29.79 in 10.0 mi South 16.1 mph - N/A   Clear
7:15 AM 63.0 °F - 59.9 °F 90% 29.79 in 10.0 mi South 15.0 mph - N/A   Clear
7:35 AM 63.0 °F - 60.1 °F 90% 29.79 in 7.0 mi South 16.1 mph - N/A   Clear
7:55 AM 63.5 °F - 60.4 °F 90% 29.79 in 10.0 mi South 18.4 mph 23.0 mph N/A   Clear
8:35 AM 64.9 °F - 61.3 °F 88% 29.78 in 10.0 mi South 19.6 mph 24.2 mph N/A   Clear
8:55 AM 66.2 °F - 62.1 °F 86% 29.77 in 10.0 mi South 25.3 mph 31.1 mph N/A   Clear
9:15 AM 67.1 °F - 62.6 °F 85% 29.77 in 10.0 mi South 26.5 mph 32.2 mph N/A   Scattered Clouds
9:55 AM 68.7 °F - 63.3 °F 83% 29.76 in 10.0 mi South 28.8 mph 36.8 mph N/A   Scattered Clouds
10:15 AM 68.9 °F - 63.3 °F 82% 29.75 in 10.0 mi South 27.6 mph 38.0 mph N/A   Scattered Clouds
10:35 AM 68.0 °F - 62.6 °F 83% 29.75 in 10.0 mi South 23.0 mph 34.5 mph N/A   Overcast
10:55 AM 68.9 °F - 63.0 °F 81% 29.75 in 10.0 mi South 26.5 mph 35.7 mph N/A   Overcast
11:15 AM 68.9 °F - 63.0 °F 81% 29.74 in 10.0 mi South 24.2 mph 32.2 mph N/A   Overcast
11:35 AM 69.3 °F - 63.5 °F 82% 29.73 in 10.0 mi South 20.7 mph 33.4 mph N/A   Overcast
11:55 AM 70.5 °F - 64.4 °F 81% 29.72 in 10.0 mi South 26.5 mph 31.1 mph N/A   Overcast
12:15 PM 71.6 °F - 64.8 °F 79% 29.71 in 10.0 mi South 25.3 mph 34.5 mph N/A   Mostly Cloudy
12:35 PM 72.5 °F - 65.3 °F 78% 29.70 in 10.0 mi South 24.2 mph 31.1 mph N/A   Mostly Cloudy
1:15 PM 72.7 °F - 65.3 °F 78% 29.69 in 10.0 mi South 24.2 mph 29.9 mph N/A   Overcast
1:35 PM 73.0 °F - 65.8 °F 78% 29.69 in 10.0 mi South 18.4 mph 27.6 mph N/A   Overcast
1:55 PM 73.0 °F - 65.7 °F 78% 29.69 in 10.0 mi South 19.6 mph 26.5 mph N/A   Overcast
2:15 PM 73.0 °F - 65.7 °F 78% 29.68 in 10.0 mi South 20.7 mph 26.5 mph N/A   Overcast
2:35 PM 73.4 °F - 66.2 °F 78% 29.68 in 10.0 mi South 24.2 mph 27.6 mph N/A   Overcast
2:55 PM 73.0 °F - 65.7 °F 78% 29.68 in 10.0 mi South 21.9 mph 25.3 mph N/A   Overcast
3:15 PM 73.2 °F - 65.5 °F 77% 29.67 in 10.0 mi South 23.0 mph 32.2 mph N/A   Overcast
3:35 PM 73.4 °F - 65.8 °F 77% 29.67 in 10.0 mi South 21.9 mph 29.9 mph N/A   Overcast
3:55 PM 73.4 °F - 65.7 °F 77% 29.67 in 10.0 mi South 21.9 mph 27.6 mph N/A   Overcast
4:15 PM 64.8 °F - 60.3 °F 85% 29.71 in 10.0 mi West 24.2 mph 31.1 mph N/A   Mostly Cloudy
4:35 PM 61.0 °F - 56.5 °F 85% 29.74 in 10.0 mi West 18.4 mph 33.4 mph N/A   Overcast
4:55 PM 58.1 °F - 53.6 °F 85% 29.76 in 10.0 mi West 21.9 mph 28.8 mph N/A Thunderstorm Overcast
5:35 PM 53.1 °F - 49.3 °F 87% 29.79 in 10.0 mi West 19.6 mph 27.6 mph N/A   Overcast
5:55 PM 51.4 °F - 48.0 °F 88% 29.81 in 10.0 mi West 26.5 mph 35.7 mph N/A Rain Light Rain
6:35 PM 47.7 °F - 44.1 °F 87% 29.85 in 10.0 mi WNW 21.9 mph 35.7 mph N/A Rain Light Rain
6:55 PM 46.4 °F 38.3 °F 42.8 °F 87% 29.86 in 7.0 mi WNW 23.0 mph 32.2 mph N/A   Drizzle
7:35 PM 45.9 °F 39.7 °F 43.2 °F 90% 29.89 in 7.0 mi WNW 13.8 mph 26.5 mph 0.07 in Rain Rain
7:55 PM 45.3 °F 37.1 °F 42.6 °F 90% 29.89 in 7.0 mi WNW 21.9 mph 27.6 mph 0.10 in Rain Light Rain
8:15 PM 44.6 °F 37.8 °F 41.7 °F 90% 29.93 in 10.0 mi WNW 15.0 mph 28.8 mph N/A Rain Rain
8:35 PM 44.1 °F 35.2 °F 41.0 °F 89% 29.91 in 10.0 mi WNW 23.0 mph 28.8 mph 0.01 in   Overcast
8:55 PM 43.9 °F 35.9 °F 40.6 °F 88% 29.94 in 10.0 mi WNW 18.4 mph 26.5 mph 0.01 in   Overcast
9:15 PM 43.9 °F 35.4 °F 40.3 °F 87% 29.97 in 10.0 mi NW 20.7 mph 27.6 mph N/A   Overcast
9:35 PM 43.9 °F 35.4 °F 39.7 °F 85% 29.96 in 10.0 mi WNW 20.7 mph 28.8 mph N/A   Overcast
9:55 PM 44.1 °F 37.1 °F 40.1 °F 86% 29.99 in 10.0 mi WNW 15.0 mph - N/A   Overcast
10:15 PM 44.2 °F 36.2 °F 40.1 °F 85% 30.00 in 10.0 mi WNW 19.6 mph 28.8 mph N/A   Overcast
10:55 PM 44.6 °F 36.9 °F 39.7 °F 83% 30.03 in 10.0 mi NW 18.4 mph 25.3 mph N/A   Overcast
11:15 PM 43.9 °F 34.5 °F 39.4 °F 84% 30.04 in 10.0 mi WNW 25.3 mph 28.8 mph N/A   Overcast
11:35 PM 42.6 °F 33.8 °F 38.3 °F 85% 30.06 in 10.0 mi WNW 20.7 mph 32.2 mph N/A   Overcast
11:55 PM 42.1 °F 33.6 °F 37.8 °F 85% 30.07 in 10.0 mi WNW 18.4 mph 27.6 mph N/A   Overcast